Location: Gebenbach
(49.5378°N, 11.8735°E)
Time: 02:06:59
(UTC+00:00)

USA 215 - Pass Details

Date: 29 October 2020
Orbit: 1102 x 1106 km, 123.0° (Epoch: 23 November)

Event Time Altitude Azimuth Distance (km) Brightness Sun altitude
Exits shadow 18:10:08 37° 69° (ENE) 1,640 3.7 -22.4°
Maximum altitude 18:12:27 55° 15° (NNE) 1,315 3.5 -22.8°
Drops below altitude 10° 18:18:47 10° 301° (WNW) 2,966 6.4 -23.8°
Sets 18:21:19 0° 297° (WNW) 3,926 7.3 -24.2°
